sat.trackr.live / text

‹ back to catalog

SATELIOT_1

NORAD 60550 · 2024-149CL

PAYLOAD ACTIVE UNKNOWN

§ Identity

Operator
Country
SPN
Launch date
2024-08-16
Launch site
AFWTR
Launch vehicle
Mass (kg)
RCS (m²)

External: N2YO · Heavens-Above · Gunter

§ Orbital elements

Epoch: 2026-09-22T17:39:54.524736Z

Period
96.10 min
Inclination
97.6663°
Eccentricity
0.0007387
Mean motion
14.98362116 rev/d
Perigee alt
566.8 km
Apogee alt
577.1 km
Semi-major
6,950.1 km
B*
8.7564e-5
RAAN
339.9907°
Arg perigee
107.0703°
Mean anomaly
253.1329°
Rev number
11,467

§ Raw data

SATELIOT_11 60550U 24149CL  26265.73604774  .00000986  00000+0  87564-4 0  99912 60550  97.6663 339.9907 0007387 107.0703 253.1329 14.98362116114673

JSON: /api/v1/satellites/60550 · /tle

For live sub-satellite position, see the globe view (requires WebGL).

§ Visibility from observer

Set your observer location to see the next 7 days of passes ≥ 10°. The values pass through the URL so the page stays shareable.

No JS? Fill the form by hand. The geolocation button needs JavaScript.